owner,sensor,date,latitude,longitude,vertical_datum,wind_speed,wind_to_direction,wind_speed_of_gust,qcFlag 
TCOON,ioos:station:TCOON:013:1,2017-07-01T00:00:00Z,27.4847,-97.3181,0.0,9.1,137.0,11.7,'11111222,11111222,11111222' 
TCOON,ioos:station:TCOON:013:1,2017-07-01T00:06:00Z,27.4847,-97.3181,0.0,10.3,135.0,11.8,'11111222,11111222,11111222' 
TCOON,ioos:station:TCOON:013:1,2017-07-01T00:12:00Z,27.4847,-97.3181,0.0,9.9,136.0,12.3,'11111222,11111222,11111222' 
TCOON,ioos:station:TCOON:013:1,2017-07-01T00:18:00Z,27.4847,-97.3181,0.0,9.7,133.0,11.7,'11111222,11111222,11111222' 
TCOON,ioos:station:TCOON:013:1,2017-07-01T00:24:00Z,27.4847,-97.3181,0.0,9.9,136.0,11.9,'11111222,11111222,11111222' 
TCOON,ioos:station:TCOON:013:1,2017-07-01T00:30:00Z,27.4847,-97.3181,0.0,9.2,132.0,12.3,'1111122,1111122,1111122' 
TCOON,ioos:station:TCOON:013:1,2017-07-01T00:36:00Z,27.4847,-97.3181,0.0,9.2,142.0,11.9,'11111222,11111222,11111222' 
TCOON,ioos:station:TCOON:013:1,2017-07-01T00:42:00Z,27.4847,-97.3181,0.0,8.9,136.0,11.4,'11111222,11111222,11111222' 
TCOON,ioos:station:TCOON:013:1,2017-07-01T00:48:00Z,27.4847,-97.3181,0.0,8.8,140.0,10.7,'11111222,11111222,11111222' 
TCOON,ioos:station:TCOON:013:1,2017-07-01T00:54:00Z,27.4847,-97.3181,0.0,8.7,140.0,10.8,'11111222,11111222,11111222' 
TCOON,ioos:station:TCOON:013:1,2017-07-01T01:00:00Z,27.4847,-97.3181,0.0,10.0,141.0,11.4,'11111222,11111222,11111222' 
TCOON,ioos:station:TCOON:013:1,2017-07-01T01:06:00Z,27.4847,-97.3181,0.0,8.6,145.0,10.6,'11111222,11111222,11111222' 
TCOON,ioos:station:TCOON:013:1,2017-07-01T01:12:00Z,27.4847,-97.3181,0.0,8.6,141.0,10.8,'11111222,11111222,11111222' 
TCOON,ioos:station:TCOON:013:1,2017-07-01T01:18:00Z,27.4847,-97.3181,0.0,8.0,140.0,11.1,'1111122,1111122,1111122' 
TCOON,ioos:station:TCOON:013:1,2017-07-01T01:24:00Z,27.4847,-97.3181,0.0,9.2,145.0,10.8,'11111222,11111222,11111222' 
TCOON,ioos:station:TCOON:013:1,2017-07-01T01:30:00Z,27.4847,-97.3181,0.0,9.6,143.0,11.2,'11111222,11111222,11111222' 
TCOON,ioos:station:TCOON:013:1,2017-07-01T01:36:00Z,27.4847,-97.3181,0.0,8.4,142.0,11.1,'11111222,11111222,11111222' 
TCOON,ioos:station:TCOON:013:1,2017-07-01T01:42:00Z,27.4847,-97.3181,0.0,8.6,143.0,10.7,'11111222,11111222,11111222' 
TCOON,ioos:station:TCOON:013:1,2017-07-01T01:48:00Z,27.4847,-97.3181,0.0,8.6,142.0,11.4,'11111222,11111222,11111222' 
TCOON,ioos:station:TCOON:013:1,2017-07-01T01:54:00Z,27.4847,-97.3181,0.0,8.3,142.0,9.8,'11111222,11111222,11111222' 
TCOON,ioos:station:TCOON:013:1,2017-07-01T02:00:00Z,27.4847,-97.3181,0.0,8.4,139.0,11.3,'11111222,11111222,11111222' 
TCOON,ioos:station:TCOON:013:1,2017-07-01T02:06:00Z,27.4847,-97.3181,0.0,7.5,143.0,11.1,'11111222,11111222,11111222' 
TCOON,ioos:station:TCOON:013:1,2017-07-01T02:12:00Z,27.4847,-97.3181,0.0,9.2,146.0,10.6,'11111222,11111222,11111222' 
TCOON,ioos:station:TCOON:013:1,2017-07-01T02:18:00Z,27.4847,-97.3181,0.0,9.5,143.0,11.3,'1111122,1111122,1111122' 
TCOON,ioos:station:TCOON:013:1,2017-07-01T02:24:00Z,27.4847,-97.3181,0.0,8.5,138.0,10.5,'11111222,11111222,11111222' 
TCOON,ioos:station:TCOON:013:1,2017-07-01T02:30:00Z,27.4847,-97.3181,0.0,9.8,140.0,11.1,'11111222,11111222,11111222' 
TCOON,ioos:station:TCOON:013:1,2017-07-01T02:36:00Z,27.4847,-97.3181,0.0,8.1,145.0,11.1,'11111222,11111222,11111222' 
TCOON,ioos:station:TCOON:013:1,2017-07-01T02:42:00Z,27.4847,-97.3181,0.0,8.3,141.0,10.1,'11111222,11111222,11111222' 
TCOON,ioos:station:TCOON:013:1,2017-07-01T02:48:00Z,27.4847,-97.3181,0.0,7.4,143.0,9.7,'11111222,11111222,11111222' 
TCOON,ioos:station:TCOON:013:1,2017-07-01T03:00:00Z,27.4847,-97.3181,0.0,9.5,145.0,11.6,'11111222,11111222,11111222' 
TCOON,ioos:station:TCOON:013:1,2017-07-01T03:06:00Z,27.4847,-97.3181,0.0,9.5,145.0,11.2,'11111222,11111222,11111222' 
TCOON,ioos:station:TCOON:013:1,2017-07-01T03:12:00Z,27.4847,-97.3181,0.0,9.1,141.0,11.1,'11111222,11111222,11111222' 
TCOON,ioos:station:TCOON:013:1,2017-07-01T03:18:00Z,27.4847,-97.3181,0.0,8.1,140.0,11.3,'11111222,11111222,11111222' 
TCOON,ioos:station:TCOON:013:1,2017-07-01T03:24:00Z,27.4847,-97.3181,0.0,7.9,142.0,9.7,'11111222,11111222,11111222' 
TCOON,ioos:station:TCOON:013:1,2017-07-01T03:36:00Z,27.4847,-97.3181,0.0,8.8,140.0,11.6,'11111222,11111222,11111222' 
TCOON,ioos:station:TCOON:013:1,2017-07-01T03:42:00Z,27.4847,-97.3181,0.0,8.5,140.0,11.3,'11111222,11111222,11111222' 
TCOON,ioos:station:TCOON:013:1,2017-07-01T03:48:00Z,27.4847,-97.3181,0.0,9.4,147.0,11.7,'11111222,11111222,11111222' 
TCOON,ioos:station:TCOON:013:1,2017-07-01T03:54:00Z,27.4847,-97.3181,0.0,9.0,150.0,11.7,'11111222,11111222,11111222' 
TCOON,ioos:station:TCOON:013:1,2017-07-01T04:00:00Z,27.4847,-97.3181,0.0,8.9,145.0,10.9,'11111222,11111222,11111222' 
TCOON,ioos:station:TCOON:013:1,2017-07-01T04:06:00Z,27.4847,-97.3181,0.0,9.2,152.0,11.1,'11111222,11111222,11111222' 
TCOON,ioos:station:TCOON:013:1,2017-07-01T04:12:00Z,27.4847,-97.3181,0.0,8.6,151.0,10.2,'11111222,11111222,11111222' 
TCOON,ioos:station:TCOON:013:1,2017-07-01T04:18:00Z,27.4847,-97.3181,0.0,9.0,147.0,10.8,'11111222,11111222,11111222' 
TCOON,ioos:station:TCOON:013:1,2017-07-01T04:24:00Z,27.4847,-97.3181,0.0,9.0,154.0,11.2,'11111222,11111222,11111222' 
TCOON,ioos:station:TCOON:013:1,2017-07-01T04:36:00Z,27.4847,-97.3181,0.0,9.8,146.0,12.1,'11111222,11111222,11111222' 
TCOON,ioos:station:TCOON:013:1,2017-07-01T04:42:00Z,27.4847,-97.3181,0.0,8.7,149.0,12.1,'11111222,11111222,11111222' 
TCOON,ioos:station:TCOON:013:1,2017-07-01T04:54:00Z,27.4847,-97.3181,0.0,8.4,152.0,10.6,'11111222,11111222,11111222' 
TCOON,ioos:station:TCOON:013:1,2017-07-01T05:00:00Z,27.4847,-97.3181,0.0,9.4,153.0,12.5,'11111222,11111222,11111222' 
TCOON,ioos:station:TCOON:013:1,2017-07-01T05:06:00Z,27.4847,-97.3181,0.0,9.4,150.0,11.7,'11111222,11111222,11111222' 
TCOON,ioos:station:TCOON:013:1,2017-07-01T05:12:00Z,27.4847,-97.3181,0.0,8.5,153.0,10.8,'11111222,11111222,11111222' 
TCOON,ioos:station:TCOON:013:1,2017-07-01T05:18:00Z,27.4847,-97.3181,0.0,8.8,154.0,10.8,'11111222,11111222,11111222' 
TCOON,ioos:station:TCOON:013:1,2017-07-01T05:24:00Z,27.4847,-97.3181,0.0,8.1,158.0,9.7,'11111222,11111222,11111222' 
TCOON,ioos:station:TCOON:013:1,2017-07-01T05:30:00Z,27.4847,-97.3181,0.0,9.8,157.0,11.2,'11111222,11111222,11111222' 
TCOON,ioos:station:TCOON:013:1,2017-07-01T05:36:00Z,27.4847,-97.3181,0.0,8.9,154.0,11.4,'11111222,11111222,11111222' 
TCOON,ioos:station:TCOON:013:1,2017-07-01T05:42:00Z,27.4847,-97.3181,0.0,9.9,150.0,12.0,'11111222,11111222,11111222' 
TCOON,ioos:station:TCOON:013:1,2017-07-01T05:48:00Z,27.4847,-97.3181,0.0,9.3,150.0,12.5,'11111222,11111222,11111222' 
TCOON,ioos:station:TCOON:013:1,2017-07-01T06:00:00Z,27.4847,-97.3181,0.0,9.2,159.0,11.6,'11111222,11111222,11111222' 
TCOON,ioos:station:TCOON:013:1,2017-07-01T06:06:00Z,27.4847,-97.3181,0.0,9.9,156.0,11.9,'11111222,11111222,11111222' 
TCOON,ioos:station:TCOON:013:1,2017-07-01T06:12:00Z,27.4847,-97.3181,0.0,9.9,154.0,11.9,'11111222,11111222,11111222' 
TCOON,ioos:station:TCOON:013:1,2017-07-01T06:18:00Z,27.4847,-97.3181,0.0,8.6,157.0,10.5,'11111222,11111222,11111222' 
TCOON,ioos:station:TCOON:013:1,2017-07-01T06:24:00Z,27.4847,-97.3181,0.0,9.7,150.0,11.2,'11111222,11111222,11111222' 
TCOON,ioos:station:TCOON:013:1,2017-07-01T06:30:00Z,27.4847,-97.3181,0.0,8.0,154.0,10.9,'11111222,11111222,11111222' 
TCOON,ioos:station:TCOON:013:1,2017-07-01T06:36:00Z,27.4847,-97.3181,0.0,8.3,157.0,9.8,'11111222,11111222,11111222' 
TCOON,ioos:station:TCOON:013:1,2017-07-01T06:42:00Z,27.4847,-97.3181,0.0,8.4,157.0,10.8,'11111222,11111222,11111222' 
TCOON,ioos:station:TCOON:013:1,2017-07-01T06:48:00Z,27.4847,-97.3181,0.0,8.7,155.0,10.8,'11111222,11111222,11111222' 
TCOON,ioos:station:TCOON:013:1,2017-07-01T06:54:00Z,27.4847,-97.3181,0.0,9.0,160.0,11.7,'11111222,11111222,11111222' 
TCOON,ioos:station:TCOON:013:1,2017-07-01T07:06:00Z,27.4847,-97.3181,0.0,8.7,156.0,11.8,'11111222,11111222,11111222' 
TCOON,ioos:station:TCOON:013:1,2017-07-01T07:12:00Z,27.4847,-97.3181,0.0,8.5,156.0,11.2,'11111222,11111222,11111222' 
TCOON,ioos:station:TCOON:013:1,2017-07-01T07:18:00Z,27.4847,-97.3181,0.0,9.5,153.0,11.3,'11111222,11111222,11111222' 
TCOON,ioos:station:TCOON:013:1,2017-07-01T07:24:00Z,27.4847,-97.3181,0.0,9.0,158.0,11.6,'11111222,11111222,11111222' 
TCOON,ioos:station:TCOON:013:1,2017-07-01T07:30:00Z,27.4847,-97.3181,0.0,9.0,163.0,10.2,'11111222,11111222,11111222' 
TCOON,ioos:station:TCOON:013:1,2017-07-01T07:36:00Z,27.4847,-97.3181,0.0,9.0,160.0,10.9,'11111222,11111222,11111222' 
TCOON,ioos:station:TCOON:013:1,2017-07-01T07:42:00Z,27.4847,-97.3181,0.0,8.7,158.0,10.5,'11111222,11111222,11111222' 
TCOON,ioos:station:TCOON:013:1,2017-07-01T07:48:00Z,27.4847,-97.3181,0.0,8.8,159.0,11.0,'11111222,11111222,11111222' 
TCOON,ioos:station:TCOON:013:1,2017-07-01T07:54:00Z,27.4847,-97.3181,0.0,9.5,163.0,11.6,'11111222,11111222,11111222' 
TCOON,ioos:station:TCOON:013:1,2017-07-01T08:00:00Z,27.4847,-97.3181,0.0,8.7,168.0,10.6,'11111222,11111222,11111222' 
TCOON,ioos:station:TCOON:013:1,2017-07-01T08:06:00Z,27.4847,-97.3181,0.0,7.4,165.0,10.1,'11111222,11111222,11111222' 
TCOON,ioos:station:TCOON:013:1,2017-07-01T08:12:00Z,27.4847,-97.3181,0.0,8.9,163.0,10.1,'11111222,11111222,11111222' 
TCOON,ioos:station:TCOON:013:1,2017-07-01T08:18:00Z,27.4847,-97.3181,0.0,8.8,165.0,10.6,'11111222,11111222,11111222' 
TCOON,ioos:station:TCOON:013:1,2017-07-01T08:24:00Z,27.4847,-97.3181,0.0,7.8,169.0,10.2,'11111222,11111222,11111222' 
TCOON,ioos:station:TCOON:013:1,2017-07-01T08:30:00Z,27.4847,-97.3181,0.0,6.4,163.0,8.8,'11111222,11111222,11111222' 
TCOON,ioos:station:TCOON:013:1,2017-07-01T08:36:00Z,27.4847,-97.3181,0.0,8.4,165.0,10.8,'11111222,11111222,11111222' 
TCOON,ioos:station:TCOON:013:1,2017-07-01T08:48:00Z,27.4847,-97.3181,0.0,8.6,162.0,10.7,'11111222,11111222,11111222' 
TCOON,ioos:station:TCOON:013:1,2017-07-01T08:54:00Z,27.4847,-97.3181,0.0,8.1,160.0,10.8,'11111222,11111222,11111222' 
TCOON,ioos:station:TCOON:013:1,2017-07-01T09:06:00Z,27.4847,-97.3181,0.0,9.1,162.0,11.1,'11111222,11111222,11111222' 
TCOON,ioos:station:TCOON:013:1,2017-07-01T09:12:00Z,27.4847,-97.3181,0.0,7.2,162.0,11.3,'11111222,11111222,11111222' 
TCOON,ioos:station:TCOON:013:1,2017-07-01T09:24:00Z,27.4847,-97.3181,0.0,9.3,154.0,11.2,'11111222,11111222,11111222' 
TCOON,ioos:station:TCOON:013:1,2017-07-01T09:30:00Z,27.4847,-97.3181,0.0,9.0,159.0,12.1,'11111222,11111222,11111222' 
TCOON,ioos:station:TCOON:013:1,2017-07-01T09:36:00Z,27.4847,-97.3181,0.0,8.5,158.0,10.6,'11111222,11111222,11111222' 
TCOON,ioos:station:TCOON:013:1,2017-07-01T09:42:00Z,27.4847,-97.3181,0.0,9.3,159.0,11.3,'11111222,11111222,11111222' 
TCOON,ioos:station:TCOON:013:1,2017-07-01T09:48:00Z,27.4847,-97.3181,0.0,8.7,157.0,10.5,'11111222,11111222,11111222' 
TCOON,ioos:station:TCOON:013:1,2017-07-01T10:00:00Z,27.4847,-97.3181,0.0,7.5,166.0,9.6,'11111222,11111222,11111222' 
TCOON,ioos:station:TCOON:013:1,2017-07-01T10:12:00Z,27.4847,-97.3181,0.0,9.4,158.0,11.5,'11111222,11111222,11111222' 
TCOON,ioos:station:TCOON:013:1,2017-07-01T10:18:00Z,27.4847,-97.3181,0.0,8.9,159.0,11.5,'11111222,11111222,11111222' 
TCOON,ioos:station:TCOON:013:1,2017-07-01T10:24:00Z,27.4847,-97.3181,0.0,7.9,162.0,10.6,'11111222,11111222,11111222' 
TCOON,ioos:station:TCOON:013:1,2017-07-01T10:30:00Z,27.4847,-97.3181,0.0,9.4,156.0,10.8,'11111222,11111222,11111222' 
TCOON,ioos:station:TCOON:013:1,2017-07-01T10:48:00Z,27.4847,-97.3181,0.0,7.9,163.0,10.5,'11111222,11111222,11111222' 
TCOON,ioos:station:TCOON:013:1,2017-07-01T10:54:00Z,27.4847,-97.3181,0.0,8.6,164.0,10.5,'11111222,11111222,11111222' 
TCOON,ioos:station:TCOON:013:1,2017-07-01T11:00:00Z,27.4847,-97.3181,0.0,8.7,163.0,10.2,'11111222,11111222,11111222' 
TCOON,ioos:station:TCOON:013:1,2017-07-01T11:06:00Z,27.4847,-97.3181,0.0,7.7,162.0,10.2,'11111222,11111222,11111222' 
TCOON,ioos:station:TCOON:013:1,2017-07-01T11:12:00Z,27.4847,-97.3181,0.0,8.7,160.0,10.2,'11111222,11111222,11111222' 
TCOON,ioos:station:TCOON:013:1,2017-07-01T11:18:00Z,27.4847,-97.3181,0.0,8.8,161.0,9.9,'11111222,11111222,11111222' 
TCOON,ioos:station:TCOON:013:1,2017-07-01T11:24:00Z,27.4847,-97.3181,0.0,7.4,164.0,10.1,'11111222,11111222,11111222' 
TCOON,ioos:station:TCOON:013:1,2017-07-01T11:30:00Z,27.4847,-97.3181,0.0,7.1,163.0,9.7,'11111222,11111222,11111222' 
TCOON,ioos:station:TCOON:013:1,2017-07-01T11:36:00Z,27.4847,-97.3181,0.0,8.0,155.0,9.7,'11111222,11111222,11111222' 
TCOON,ioos:station:TCOON:013:1,2017-07-01T11:42:00Z,27.4847,-97.3181,0.0,8.6,152.0,10.1,'11111222,11111222,11111222' 
TCOON,ioos:station:TCOON:013:1,2017-07-01T11:48:00Z,27.4847,-97.3181,0.0,9.6,156.0,11.4,'11111222,11111222,11111222' 
TCOON,ioos:station:TCOON:013:1,2017-07-01T11:54:00Z,27.4847,-97.3181,0.0,8.1,154.0,10.5,'11111222,11111222,11111222' 
TCOON,ioos:station:TCOON:013:1,2017-07-01T12:00:00Z,27.4847,-97.3181,0.0,7.4,158.0,10.7,'11111222,11111222,11111222' 
TCOON,ioos:station:TCOON:013:1,2017-07-01T12:06:00Z,27.4847,-97.3181,0.0,6.8,153.0,8.7,'11111222,11111222,11111222' 
TCOON,ioos:station:TCOON:013:1,2017-07-01T12:12:00Z,27.4847,-97.3181,0.0,7.8,150.0,9.7,'11111222,11111222,11111222' 
TCOON,ioos:station:TCOON:013:1,2017-07-01T12:24:00Z,27.4847,-97.3181,0.0,6.8,156.0,9.7,'11111222,11111222,11111222' 
TCOON,ioos:station:TCOON:013:1,2017-07-01T12:30:00Z,27.4847,-97.3181,0.0,7.0,159.0,9.2,'11111222,11111222,11111222' 
TCOON,ioos:station:TCOON:013:1,2017-07-01T12:36:00Z,27.4847,-97.3181,0.0,8.2,155.0,9.9,'11111222,11111222,11111222' 
TCOON,ioos:station:TCOON:013:1,2017-07-01T12:42:00Z,27.4847,-97.3181,0.0,7.7,163.0,8.8,'11111222,11111222,11111222' 
TCOON,ioos:station:TCOON:013:1,2017-07-01T12:48:00Z,27.4847,-97.3181,0.0,8.0,154.0,9.8,'11111222,11111222,11111222' 
TCOON,ioos:station:TCOON:013:1,2017-07-01T12:54:00Z,27.4847,-97.3181,0.0,7.3,152.0,9.8,'11111222,11111222,11111222' 
TCOON,ioos:station:TCOON:013:1,2017-07-01T13:00:00Z,27.4847,-97.3181,0.0,8.5,152.0,10.2,'11111222,11111222,11111222' 
TCOON,ioos:station:TCOON:013:1,2017-07-01T13:06:00Z,27.4847,-97.3181,0.0,8.0,150.0,10.6,'11111222,11111222,11111222' 
TCOON,ioos:station:TCOON:013:1,2017-07-01T13:12:00Z,27.4847,-97.3181,0.0,7.4,151.0,9.6,'11111222,11111222,11111222' 
TCOON,ioos:station:TCOON:013:1,2017-07-01T13:18:00Z,27.4847,-97.3181,0.0,7.1,155.0,8.5,'11111222,11111222,11111222' 
TCOON,ioos:station:TCOON:013:1,2017-07-01T13:24:00Z,27.4847,-97.3181,0.0,8.4,149.0,10.9,'11111222,11111222,11111222' 
TCOON,ioos:station:TCOON:013:1,2017-07-01T13:36:00Z,27.4847,-97.3181,0.0,7.7,147.0,10.0,'11111222,11111222,11111222' 
TCOON,ioos:station:TCOON:013:1,2017-07-01T13:42:00Z,27.4847,-97.3181,0.0,6.8,156.0,9.6,'11111222,11111222,11111222' 
TCOON,ioos:station:TCOON:013:1,2017-07-01T13:48:00Z,27.4847,-97.3181,0.0,9.9,148.0,11.0,'11111222,11111222,11111222' 
TCOON,ioos:station:TCOON:013:1,2017-07-01T13:54:00Z,27.4847,-97.3181,0.0,8.3,149.0,10.6,'11111222,11111222,11111222' 
TCOON,ioos:station:TCOON:013:1,2017-07-01T14:00:00Z,27.4847,-97.3181,0.0,8.5,152.0,10.5,'11111222,11111222,11111222' 
TCOON,ioos:station:TCOON:013:1,2017-07-01T14:06:00Z,27.4847,-97.3181,0.0,7.7,154.0,9.3,'11111222,11111222,11111222' 
TCOON,ioos:station:TCOON:013:1,2017-07-01T14:12:00Z,27.4847,-97.3181,0.0,8.4,154.0,9.9,'11111222,11111222,11111222' 
TCOON,ioos:station:TCOON:013:1,2017-07-01T14:18:00Z,27.4847,-97.3181,0.0,8.4,154.0,10.4,'11111222,11111222,11111222' 
TCOON,ioos:station:TCOON:013:1,2017-07-01T14:24:00Z,27.4847,-97.3181,0.0,8.5,156.0,10.6,'11111222,11111222,11111222' 
TCOON,ioos:station:TCOON:013:1,2017-07-01T14:30:00Z,27.4847,-97.3181,0.0,8.6,146.0,10.6,'11111222,11111222,11111222' 
TCOON,ioos:station:TCOON:013:1,2017-07-01T14:36:00Z,27.4847,-97.3181,0.0,9.5,144.0,10.9,'11111222,11111222,11111222' 
TCOON,ioos:station:TCOON:013:1,2017-07-01T14:42:00Z,27.4847,-97.3181,0.0,8.8,143.0,11.4,'11111222,11111222,11111222' 
TCOON,ioos:station:TCOON:013:1,2017-07-01T14:48:00Z,27.4847,-97.3181,0.0,8.7,157.0,10.7,'11111222,11111222,11111222' 
TCOON,ioos:station:TCOON:013:1,2017-07-01T14:54:00Z,27.4847,-97.3181,0.0,8.5,150.0,10.3,'11111222,11111222,11111222' 
TCOON,ioos:station:TCOON:013:1,2017-07-01T15:00:00Z,27.4847,-97.3181,0.0,7.8,145.0,9.8,'11111222,11111222,11111222' 
TCOON,ioos:station:TCOON:013:1,2017-07-01T15:06:00Z,27.4847,-97.3181,0.0,9.0,144.0,10.9,'11111222,11111222,11111222' 
TCOON,ioos:station:TCOON:013:1,2017-07-01T15:12:00Z,27.4847,-97.3181,0.0,8.5,135.0,11.0,'11111222,11111222,11111222' 
TCOON,ioos:station:TCOON:013:1,2017-07-01T15:18:00Z,27.4847,-97.3181,0.0,8.3,143.0,10.2,'11111222,11111222,11111222' 
TCOON,ioos:station:TCOON:013:1,2017-07-01T15:24:00Z,27.4847,-97.3181,0.0,8.9,144.0,10.6,'11111222,11111222,11111222' 
TCOON,ioos:station:TCOON:013:1,2017-07-01T15:30:00Z,27.4847,-97.3181,0.0,9.0,141.0,10.9,'11111222,11111222,11111222' 
TCOON,ioos:station:TCOON:013:1,2017-07-01T15:36:00Z,27.4847,-97.3181,0.0,8.5,138.0,10.1,'11111222,11111222,11111222' 
TCOON,ioos:station:TCOON:013:1,2017-07-01T15:42:00Z,27.4847,-97.3181,0.0,8.0,135.0,10.0,'11111222,11111222,11111222' 
TCOON,ioos:station:TCOON:013:1,2017-07-01T15:54:00Z,27.4847,-97.3181,0.0,7.4,139.0,9.5,'11111222,11111222,11111222' 
TCOON,ioos:station:TCOON:013:1,2017-07-01T16:00:00Z,27.4847,-97.3181,0.0,7.9,137.0,9.3,'11111222,11111222,11111222' 
TCOON,ioos:station:TCOON:013:1,2017-07-01T16:06:00Z,27.4847,-97.3181,0.0,8.2,137.0,10.0,'11111222,11111222,11111222' 
TCOON,ioos:station:TCOON:013:1,2017-07-01T16:12:00Z,27.4847,-97.3181,0.0,8.7,134.0,10.2,'11111222,11111222,11111222' 
TCOON,ioos:station:TCOON:013:1,2017-07-01T16:18:00Z,27.4847,-97.3181,0.0,8.7,140.0,11.2,'11111222,11111222,11111222' 
TCOON,ioos:station:TCOON:013:1,2017-07-01T16:24:00Z,27.4847,-97.3181,0.0,7.5,140.0,10.2,'11111222,11111222,11111222' 
TCOON,ioos:station:TCOON:013:1,2017-07-01T16:30:00Z,27.4847,-97.3181,0.0,8.9,138.0,10.7,'11111222,11111222,11111222' 
TCOON,ioos:station:TCOON:013:1,2017-07-01T16:36:00Z,27.4847,-97.3181,0.0,8.3,135.0,10.4,'11111222,11111222,11111222' 
TCOON,ioos:station:TCOON:013:1,2017-07-01T16:42:00Z,27.4847,-97.3181,0.0,7.7,136.0,10.0,'11111222,11111222,11111222' 
TCOON,ioos:station:TCOON:013:1,2017-07-01T16:48:00Z,27.4847,-97.3181,0.0,8.0,141.0,10.0,'11111222,11111222,11111222' 
TCOON,ioos:station:TCOON:013:1,2017-07-01T16:54:00Z,27.4847,-97.3181,0.0,8.9,154.0,11.4,'11111222,11111222,11111222' 
TCOON,ioos:station:TCOON:013:1,2017-07-01T17:00:00Z,27.4847,-97.3181,0.0,7.9,135.0,9.7,'11111222,11111222,11111222' 
TCOON,ioos:station:TCOON:013:1,2017-07-01T17:06:00Z,27.4847,-97.3181,0.0,9.6,149.0,11.1,'11111222,11111222,11111222' 
TCOON,ioos:station:TCOON:013:1,2017-07-01T17:12:00Z,27.4847,-97.3181,0.0,8.1,131.0,10.5,'11111222,11111222,11111222' 
TCOON,ioos:station:TCOON:013:1,2017-07-01T17:18:00Z,27.4847,-97.3181,0.0,8.7,145.0,10.7,'11111222,11111222,11111222' 
TCOON,ioos:station:TCOON:013:1,2017-07-01T17:24:00Z,27.4847,-97.3181,0.0,7.2,133.0,10.4,'11111222,11111222,11111222' 
TCOON,ioos:station:TCOON:013:1,2017-07-01T17:30:00Z,27.4847,-97.3181,0.0,7.8,138.0,10.3,'11111222,11111222,11111222' 
TCOON,ioos:station:TCOON:013:1,2017-07-01T17:42:00Z,27.4847,-97.3181,0.0,7.8,135.0,10.0,'11111222,11111222,11111222' 
TCOON,ioos:station:TCOON:013:1,2017-07-01T17:48:00Z,27.4847,-97.3181,0.0,7.7,137.0,9.5,'11111222,11111222,11111222' 
TCOON,ioos:station:TCOON:013:1,2017-07-01T17:54:00Z,27.4847,-97.3181,0.0,8.5,144.0,11.2,'11111222,11111222,11111222' 
TCOON,ioos:station:TCOON:013:1,2017-07-01T18:00:00Z,27.4847,-97.3181,0.0,8.9,146.0,11.1,'11111222,11111222,11111222' 
TCOON,ioos:station:TCOON:013:1,2017-07-01T18:06:00Z,27.4847,-97.3181,0.0,9.6,142.0,11.8,'11111222,11111222,11111222' 
TCOON,ioos:station:TCOON:013:1,2017-07-01T18:12:00Z,27.4847,-97.3181,0.0,8.2,144.0,10.7,'11111222,11111222,11111222' 
TCOON,ioos:station:TCOON:013:1,2017-07-01T18:18:00Z,27.4847,-97.3181,0.0,7.9,135.0,9.9,'11111222,11111222,11111222' 
TCOON,ioos:station:TCOON:013:1,2017-07-01T18:24:00Z,27.4847,-97.3181,0.0,8.5,142.0,10.5,'11111222,11111222,11111222' 
TCOON,ioos:station:TCOON:013:1,2017-07-01T18:30:00Z,27.4847,-97.3181,0.0,7.0,131.0,9.7,'11111222,11111222,11111222' 
TCOON,ioos:station:TCOON:013:1,2017-07-01T18:36:00Z,27.4847,-97.3181,0.0,8.5,141.0,10.0,'11111222,11111222,11111222' 
TCOON,ioos:station:TCOON:013:1,2017-07-01T18:42:00Z,27.4847,-97.3181,0.0,8.5,138.0,9.9,'11111222,11111222,11111222' 
TCOON,ioos:station:TCOON:013:1,2017-07-01T18:48:00Z,27.4847,-97.3181,0.0,9.2,126.0,10.6,'11111222,11111222,11111222' 
TCOON,ioos:station:TCOON:013:1,2017-07-01T18:54:00Z,27.4847,-97.3181,0.0,8.8,121.0,10.3,'11111222,11111222,11111222' 
TCOON,ioos:station:TCOON:013:1,2017-07-01T19:00:00Z,27.4847,-97.3181,0.0,8.3,137.0,10.1,'11111222,11111222,11111222' 
TCOON,ioos:station:TCOON:013:1,2017-07-01T19:06:00Z,27.4847,-97.3181,0.0,7.8,146.0,10.2,'11111222,11111222,11111222' 
TCOON,ioos:station:TCOON:013:1,2017-07-01T19:12:00Z,27.4847,-97.3181,0.0,7.8,139.0,11.0,'11111222,11111222,11111222' 
TCOON,ioos:station:TCOON:013:1,2017-07-01T19:18:00Z,27.4847,-97.3181,0.0,8.7,128.0,10.4,'11111222,11111222,11111222' 
TCOON,ioos:station:TCOON:013:1,2017-07-01T19:24:00Z,27.4847,-97.3181,0.0,7.6,143.0,10.0,'11111222,11111222,11111222' 
TCOON,ioos:station:TCOON:013:1,2017-07-01T19:30:00Z,27.4847,-97.3181,0.0,8.2,124.0,9.7,'11111222,11111222,11111222' 
TCOON,ioos:station:TCOON:013:1,2017-07-01T19:36:00Z,27.4847,-97.3181,0.0,8.2,138.0,12.1,'11111222,11111222,11111222' 
TCOON,ioos:station:TCOON:013:1,2017-07-01T19:42:00Z,27.4847,-97.3181,0.0,8.4,137.0,10.1,'11111222,11111222,11111222' 
TCOON,ioos:station:TCOON:013:1,2017-07-01T19:48:00Z,27.4847,-97.3181,0.0,7.2,132.0,10.1,'11111222,11111222,11111222' 
TCOON,ioos:station:TCOON:013:1,2017-07-01T19:54:00Z,27.4847,-97.3181,0.0,8.2,122.0,10.2,'11111222,11111222,11111222' 
TCOON,ioos:station:TCOON:013:1,2017-07-01T20:00:00Z,27.4847,-97.3181,0.0,8.2,122.0,10.5,'11111222,11111222,11111222' 
TCOON,ioos:station:TCOON:013:1,2017-07-01T20:06:00Z,27.4847,-97.3181,0.0,8.5,139.0,10.5,'11111222,11111222,11111222' 
TCOON,ioos:station:TCOON:013:1,2017-07-01T20:12:00Z,27.4847,-97.3181,0.0,8.5,135.0,10.9,'11111222,11111222,11111222' 
TCOON,ioos:station:TCOON:013:1,2017-07-01T20:18:00Z,27.4847,-97.3181,0.0,7.8,127.0,10.6,'11111222,11111222,11111222' 
TCOON,ioos:station:TCOON:013:1,2017-07-01T20:24:00Z,27.4847,-97.3181,0.0,7.8,124.0,10.4,'11111222,11111222,11111222' 
TCOON,ioos:station:TCOON:013:1,2017-07-01T20:30:00Z,27.4847,-97.3181,0.0,8.3,129.0,10.6,'11111222,11111222,11111222' 
TCOON,ioos:station:TCOON:013:1,2017-07-01T20:36:00Z,27.4847,-97.3181,0.0,8.1,128.0,10.2,'11111222,11111222,11111222' 
TCOON,ioos:station:TCOON:013:1,2017-07-01T20:42:00Z,27.4847,-97.3181,0.0,8.7,135.0,9.8,'11111222,11111222,11111222' 
TCOON,ioos:station:TCOON:013:1,2017-07-01T20:48:00Z,27.4847,-97.3181,0.0,8.5,139.0,10.8,'11111222,11111222,11111222' 
TCOON,ioos:station:TCOON:013:1,2017-07-01T20:54:00Z,27.4847,-97.3181,0.0,7.5,132.0,9.4,'11111222,11111222,11111222' 
TCOON,ioos:station:TCOON:013:1,2017-07-01T21:00:00Z,27.4847,-97.3181,0.0,7.8,129.0,10.3,'11111222,11111222,11111222' 
TCOON,ioos:station:TCOON:013:1,2017-07-01T21:06:00Z,27.4847,-97.3181,0.0,8.0,127.0,10.1,'11111222,11111222,11111222' 
TCOON,ioos:station:TCOON:013:1,2017-07-01T21:12:00Z,27.4847,-97.3181,0.0,6.8,124.0,9.6,'11111222,11111222,11111222' 
TCOON,ioos:station:TCOON:013:1,2017-07-01T21:18:00Z,27.4847,-97.3181,0.0,7.6,121.0,9.2,'11111222,11111222,11111222' 
TCOON,ioos:station:TCOON:013:1,2017-07-01T21:24:00Z,27.4847,-97.3181,0.0,7.4,128.0,8.7,'11111222,11111222,11111222' 
TCOON,ioos:station:TCOON:013:1,2017-07-01T21:30:00Z,27.4847,-97.3181,0.0,7.0,119.0,9.2,'11111222,11111222,11111222' 
TCOON,ioos:station:TCOON:013:1,2017-07-01T21:36:00Z,27.4847,-97.3181,0.0,6.5,111.0,9.0,'11111222,11111222,11111222' 
TCOON,ioos:station:TCOON:013:1,2017-07-01T21:42:00Z,27.4847,-97.3181,0.0,6.3,113.0,8.9,'11111222,11111222,11111222' 
TCOON,ioos:station:TCOON:013:1,2017-07-01T21:48:00Z,27.4847,-97.3181,0.0,6.5,124.0,7.4,'11111222,11111222,11111222' 